TECHSAT 1B (GO-32)

Last updated on Tue Aug 25 2026 00:02:44 GMT+0000 (Coordinated Universal Time)

1 25397U 98043D 26236.41053792 .00000052 00000+0 42525-4 0 9998 2 25397 99.0128 230.9077 0001982 51.4157 308.7199 14.24439584461044
UTC large
Height (km)
Speed (km/s)
/
Latitude / Longitude
Inclination (degrees)
Orbital Period (minutes)
Azimuth
Elevation
Range (km)
Doppler Factor

Next 0 passes for location: London (51.5072 / 0.1276)

No passes found over London.
TECHSAT 1B (GO-32)